Coldwater, MI

7:12 AM EDT on September 26, 2017 (GMT -0400)
Branch County Memorial

Weather History for KOEB - November, 2012

Change the Weather History Date:

Thursday, November 29, 2012

  Actual Average (KJYM) Record (KJYM)
Temperature  
Mean Temperature 38 °F -  
Max Temperature 48 °F 38 °F 62 °F (1962)
Min Temperature 28 °F 25 °F 3 °F (1958)
Degree Days  
Heating Degree Days 27    
Moisture  
Dew Point 26 °F    
Average Humidity 66    
Maximum Humidity 80    
Minimum Humidity 43    
Precipitation  
Precipitation 0.00 in - - ()
Sea Level Pressure  
Sea Level Pressure 30.23 in    
Wind  
Wind Speed 7 mph (SSW)    
Max Wind Speed 14 mph    
Max Gust Speed 20 mph    
Visibility 9 miles    
Events      
Averages and records for this station are not official NWS values.
T = Trace of Precipitation, MM = Missing Value Source: NWS Daily Summary

Daily Weather History Graph

Daily Weather History Graph

Search for Another Location

Airport or City:

Trip Planner

Search our weather history database for the weather conditions in past years. The results will help you decide how hot, cold, wet, or windy it might be!

Date:

Astronomy

Nov. 29, 2012 Rise Set
Actual Time 7:46 AM EST 5:10 PM EST
Civil Twilight 7:15 AM EST 5:41 PM EST
Nautical Twilight 6:41 AM EST 6:15 PM EST
Astronomical Twilight 6:07 AM EST 6:49 PM EST
Moon 6:12 PM EST (11/29) 8:33 AM EST (11/29)
Length of Visible Light 10h 25m
Length of Day
9h 23m
Full, 99% of the Moon is Illuminated
Nov 29
Full
Dec 6
Last Quarter
Dec 13
New
Dec 20
First Quarter
Dec 28
Full

Hourly Weather History & Observations

Time (EST) Temp. Windchill Dew Point Humidity Pressure Visibility Wind Dir Wind Speed Gust Speed Precip Events Conditions
12:14 AM 28.8 °F 22.6 °F 21.9 °F 76% 30.29 in 10.0 mi SW 5.8 mph - N/A   Clear
12:35 AM 29.7 °F 22.8 °F 22.3 °F 74% 30.29 in 10.0 mi SW 6.9 mph - N/A   Clear
12:54 AM 30.2 °F 22.6 °F 22.8 °F 74% 30.28 in 10.0 mi SW 8.1 mph - N/A   Clear
1:14 AM 30.7 °F 24.1 °F 23.0 °F 73% 30.28 in 10.0 mi SW 6.9 mph - N/A   Clear
1:35 AM 30.2 °F 23.4 °F 23.0 °F 75% 30.28 in 10.0 mi SW 6.9 mph - N/A   Clear
1:54 AM 30.4 °F 24.5 °F 23.2 °F 75% 30.28 in 10.0 mi SW 5.8 mph - N/A   Clear
2:15 AM 30.6 °F 25.8 °F 23.7 °F 76% 30.28 in 10.0 mi SW 4.6 mph - N/A   Clear
2:35 AM 30.9 °F 26.2 °F 23.9 °F 75% 30.29 in 10.0 mi SW 4.6 mph - N/A   Clear
2:54 AM 30.7 °F 24.9 °F 23.9 °F 76% 30.29 in 10.0 mi SW 5.8 mph - N/A   Clear
3:15 AM 30.2 °F 24.3 °F 24.1 °F 78% 30.28 in 10.0 mi SSW 5.8 mph - N/A   Clear
3:35 AM 31.1 °F 24.5 °F 24.8 °F 77% 30.28 in 10.0 mi SW 6.9 mph - N/A   Clear
3:54 AM 31.6 °F 27.0 °F 24.6 °F 75% 30.29 in 10.0 mi SW 4.6 mph - N/A   Clear
4:15 AM 29.8 °F 23.9 °F 23.9 °F 79% 30.29 in 10.0 mi SW 5.8 mph - N/A   Clear
4:34 AM 30.2 °F 25.4 °F 24.3 °F 79% 30.29 in 7.0 mi SW 4.6 mph - N/A   Clear
4:54 AM 29.5 °F 24.5 °F 23.9 °F 80% 30.28 in 7.0 mi SW 4.6 mph - N/A   Clear
5:15 AM 29.1 °F 23.0 °F 23.7 °F 80% 30.28 in 7.0 mi SSW 5.8 mph - N/A   Clear
5:34 AM 30.2 °F 23.4 °F 24.8 °F 80% 30.28 in 7.0 mi SSW 6.9 mph - N/A   Clear
5:54 AM 30.6 °F 24.7 °F 24.8 °F 79% 30.28 in 7.0 mi SW 5.8 mph - N/A   Clear
6:15 AM 30.4 °F 24.5 °F 24.4 °F 79% 30.27 in 7.0 mi SSW 5.8 mph - N/A   Clear
6:34 AM 30.4 °F 23.6 °F 24.6 °F 79% 30.26 in 7.0 mi SSW 6.9 mph - N/A   Clear
6:54 AM 31.6 °F 24.4 °F 25.3 °F 78% 30.27 in 7.0 mi SSW 8.1 mph - N/A   Clear
7:15 AM 31.1 °F 24.5 °F 24.8 °F 77% 30.28 in 7.0 mi SW 6.9 mph - N/A   Clear
7:34 AM 30.2 °F 24.3 °F 24.3 °F 79% 30.28 in 7.0 mi SSW 5.8 mph - N/A   Clear
7:54 AM 30.2 °F 24.3 °F 24.3 °F 79% 30.27 in 7.0 mi SSW 5.8 mph - N/A   Clear
8:14 AM 31.3 °F 24.7 °F 24.8 °F 77% 30.27 in 7.0 mi SSW 6.9 mph - N/A   Clear
8:34 AM 32.0 °F 25.6 °F 25.2 °F 76% 30.27 in 7.0 mi SSW 6.9 mph - N/A   Clear
8:55 AM 32.9 °F 25.3 °F 25.5 °F 74% 30.26 in 7.0 mi SW 9.2 mph - N/A   Clear
9:14 AM 34.0 °F 26.6 °F 25.9 °F 72% 30.27 in 7.0 mi SW 9.2 mph - N/A   Clear
9:34 AM 35.2 °F 27.6 °F 25.9 °F 69% 30.26 in 7.0 mi SW 10.4 mph - N/A   Clear
9:55 AM 36.9 °F 30.7 °F 26.1 °F 65% 30.27 in 7.0 mi SW 8.1 mph - N/A   Clear
10:14 AM 38.3 °F 31.4 °F 26.2 °F 62% 30.28 in 10.0 mi SW 10.4 mph - N/A   Clear
10:35 AM 39.7 °F 32.3 °F 25.9 °F 58% 30.27 in 10.0 mi SW 12.7 mph 17.3 mph N/A   Clear
10:55 AM 41.2 °F 35.0 °F 26.1 °F 55% 30.27 in 10.0 mi SW 10.4 mph - N/A   Clear
11:14 AM 41.9 °F 35.4 °F 25.9 °F 53% 30.26 in 10.0 mi SW 11.5 mph 16.1 mph N/A   Clear
11:35 AM 43.3 °F 37.2 °F 26.2 °F 51% 30.25 in 10.0 mi SW 11.5 mph 17.3 mph N/A   Clear
11:55 AM 44.4 °F 38.2 °F 26.4 °F 49% 30.24 in 10.0 mi WSW 12.7 mph - N/A   Clear
12:14 PM 45.3 °F 39.0 °F 26.4 °F 48% 30.22 in 10.0 mi SW 13.8 mph 18.4 mph N/A   Clear
12:35 PM 46.0 °F 40.6 °F 26.4 °F 46% 30.22 in 10.0 mi SW 11.5 mph 16.1 mph N/A   Clear
12:54 PM 46.0 °F 40.2 °F 26.2 °F 46% 30.21 in 10.0 mi SW 12.7 mph 19.6 mph N/A   Clear
1:14 PM 46.9 °F - 26.4 °F 45% 30.20 in 10.0 mi SW 12.7 mph 18.4 mph N/A   Clear
1:35 PM 47.5 °F - 26.2 °F 44% 30.19 in 10.0 mi SW 12.7 mph 18.4 mph N/A   Clear
1:54 PM 48.0 °F - 26.6 °F 43% 30.18 in 10.0 mi SSW 9.2 mph - N/A   Clear
2:14 PM 47.8 °F - 26.6 °F 44% 30.18 in 10.0 mi SSW 10.4 mph 17.3 mph N/A   Clear
2:34 PM 48.2 °F - 26.8 °F 43% 30.18 in 10.0 mi SW 11.5 mph - N/A   Clear
2:54 PM 48.0 °F - 26.8 °F 44% 30.17 in 10.0 mi SSW 8.1 mph - N/A   Clear
3:15 PM 47.7 °F - 27.0 °F 45% 30.17 in 10.0 mi SSW 9.2 mph - N/A   Clear
3:34 PM 47.3 °F - 26.6 °F 45% 30.16 in 10.0 mi SSW 8.1 mph - N/A   Clear
3:55 PM 47.1 °F - 26.6 °F 45% 30.16 in 10.0 mi SSW 6.9 mph - N/A   Clear
4:14 PM 46.4 °F 42.4 °F 26.6 °F 46% 30.16 in 10.0 mi SW 8.1 mph - N/A   Clear
4:34 PM 44.8 °F 41.0 °F 27.0 °F 50% 30.17 in 10.0 mi SSW 6.9 mph - N/A   Clear
4:54 PM 42.6 °F 39.0 °F 27.0 °F 54% 30.17 in 10.0 mi SSW 5.8 mph - N/A   Clear
5:14 PM 43.0 °F 39.5 °F 26.6 °F 52% 30.17 in 10.0 mi SSW 5.8 mph - N/A   Clear
5:35 PM 41.9 °F 40.0 °F 26.6 °F 55% 30.17 in 10.0 mi South 3.5 mph - N/A   Clear
5:54 PM 39.2 °F 37.0 °F 26.4 °F 60% 30.17 in 10.0 mi South 3.5 mph - N/A   Clear
6:14 PM 36.5 °F 33.9 °F 26.6 °F 67% 30.17 in 10.0 mi SSE 3.5 mph - N/A   Clear
6:35 PM 35.4 °F 31.5 °F 26.6 °F 70% 30.18 in 10.0 mi SSE 4.6 mph - N/A   Clear
6:54 PM 37.0 °F 33.3 °F 27.1 °F 67% 30.18 in 10.0 mi SSE 4.6 mph - N/A   Clear
7:15 PM 37.0 °F 33.3 °F 27.5 °F 68% 30.18 in 10.0 mi SSE 4.6 mph - N/A   Clear
7:35 PM 38.3 °F 33.9 °F 27.9 °F 66% 30.18 in 10.0 mi SSE 5.8 mph - N/A   Clear
7:54 PM 38.3 °F 33.9 °F 28.0 °F 67% 30.18 in 10.0 mi SSE 5.8 mph - N/A   Clear
8:15 PM 37.8 °F 34.2 °F 28.2 °F 68% 30.18 in 10.0 mi South 4.6 mph - N/A   Clear
8:34 PM 37.8 °F 34.2 °F 28.2 °F 68% 30.18 in 10.0 mi SSE 4.6 mph - N/A   Clear
8:55 PM 36.9 °F 33.1 °F 28.4 °F 71% 30.18 in 10.0 mi SE 4.6 mph - N/A   Clear
9:14 PM 36.7 °F 34.1 °F 28.4 °F 72% 30.18 in 10.0 mi SSE 3.5 mph - N/A   Scattered Clouds
9:34 PM 35.2 °F 31.2 °F 28.2 °F 76% 30.18 in 10.0 mi SSE 4.6 mph - N/A   Mostly Cloudy
9:55 PM 36.7 °F 34.1 °F 29.5 °F 75% 30.18 in 10.0 mi SSE 3.5 mph - N/A   Overcast
10:14 PM 37.4 °F - 29.8 °F 74% 30.18 in 10.0 mi Calm Calm - N/A   Overcast
10:35 PM 38.7 °F - 29.8 °F 71% 30.18 in 10.0 mi Calm Calm - N/A   Overcast
10:54 PM 39.4 °F 37.2 °F 29.8 °F 69% 30.18 in 10.0 mi SSE 3.5 mph - N/A   Overcast
11:15 PM 39.4 °F 37.2 °F 30.2 °F 70% 30.17 in 10.0 mi SSE 3.5 mph - N/A   Overcast
11:35 PM 40.3 °F 37.1 °F 30.2 °F 67% 30.17 in 10.0 mi South 4.6 mph - N/A   Overcast
11:54 PM 40.6 °F - 30.2 °F 66% 30.17 in 10.0 mi Calm Calm - N/A   Overcast